Wetbulb
59.96 54.41 52.27 51.46 44.79 41.28 37.68 42.11 46.00 46.24 46.13 47.89 51.94 53.53 53.14 54.02 52.12 47.34 62.35 65.92 65.40 65.22 69.13 70.20 71.51 72.08 71.74 71.35 71.35 70.58 70.46 70.14 69.11 69.44 69.49 68.97 68.70 68.56 68.36 68.32 68.92 68.09 67.89 68.01 68.47 68.90 69.21 69.21 68.89
57.90 54.96 51.05 46.58 40.59 36.19 36.58 42.48 45.31 47.64 48.99 53.49 52.73 52.56 53.51 52.21 58.67 61.94 63.25 66.96 67.92 68.09 68.78 69.38 70.50 71.91 71.29 71.32 71.01 70.16 70.07 69.92 68.29 68.66 69.83 69.36 68.64 68.17 67.82 67.80 67.67 68.11 67.68 68.14 68.26 68.86 68.48 68.07 67.60
53.37 54.23 46.75 43.50 38.13 35.27 37.63 42.87 46.43 47.66 49.34 48.25 49.03 52.79 55.03 55.37 59.80 61.13 65.70 67.04 67.33 67.44 68.45 69.02 70.67 71.68 70.99 71.13 70.83 70.08 70.01 69.92 69.68 68.81 69.80 69.21 68.65 67.66 67.48 67.48 67.56 67.98 67.19 67.53 67.48 67.86 67.60 67.15 66.98
50.84 49.27 46.35 40.27 37.15 37.79 42.24 46.01 47.13 47.08 46.83 50.53 51.46 50.42 55.71 60.00 60.82 64.37 65.96 66.31 66.24 66.41 67.93 69.23 70.51 71.46 71.13 70.98 70.07 69.45 68.80 69.28 68.79 68.39 68.64 68.82 68.72 67.40 67.11 67.70 67.57 67.64 66.88 66.45 66.61 66.80 66.71 66.66 66.11
48.63 46.01 41.20 38.66 36.77 39.68 43.78 47.52 47.79 46.41 46.11 46.28 50.25 48.54 53.26 60.19 64.55 65.31 64.88 66.22 65.45 65.57 67.26 68.58 69.81 70.67 71.00 70.89 70.02 69.39 68.65 68.80 68.45 67.92 67.99 68.36 68.36 67.72 67.53 67.44 67.45 67.94 66.94 66.53 66.35 66.01 66.03 65.75 65.12
45.01 44.72 38.64 37.25 36.68 40.97 43.67 46.83 46.44 44.68 45.78 50.43 51.75 51.79 52.79 60.77 62.68 63.53 65.17 64.55 65.65 65.82 66.74 67.55 66.90 68.58 69.68 70.26 69.73 69.28 68.66 68.27 68.40 67.63 67.46 67.60 67.66 68.40 67.73 67.31 66.92 66.97 66.26 66.59 66.11 65.46 65.35 65.09 64.79
43.51 42.21 38.49 36.93 37.35 40.51 44.73 46.85 45.80 45.40 44.92 44.90 53.53 50.19 53.55 58.55 62.84 64.05 63.86 64.24 64.80 66.07 65.84 65.62 66.47 66.68 66.61 67.93 68.19 68.25 68.16 68.03 68.34 67.91 67.18 66.60 66.67 67.81 68.52 67.91 67.31 65.72 65.67 66.25 65.77 65.35 64.90 64.51 64.13
45.48 43.74 39.44 38.83 38.45 39.77 45.28 45.72 44.53 45.95 45.38 50.30 55.43 50.61 53.49 58.85 62.94 63.89 63.15 63.66 63.66 64.33 64.46 64.12 64.69 65.19 65.57 66.72 65.11 65.85 66.65 66.92 66.72 65.96 64.46 63.33 63.64 64.03 64.35 63.84 66.40 66.75 66.23 66.10 65.48 64.95 64.30 63.54 63.17
46.73 40.69 38.23 41.22 39.53 41.39 44.17 43.78 43.86 45.90 47.62 49.27 51.49 54.35 57.57 60.52 62.14 62.66 61.73 62.06 62.38 63.41 63.05 63.18 63.60 63.68 64.10 65.27 63.23 63.14 63.74 63.83 63.41 62.90 61.62 60.45 59.71 60.31 60.55 62.23 64.46 66.31 65.92 65.17 64.62 63.92 62.76 61.96 60.98
42.67 39.79 42.06 44.78 43.08 43.55 44.32 44.50 44.34 45.32 44.88 50.80 53.36 56.44 60.52 59.70 61.83 60.76 60.52 60.13 60.56 61.03 61.44 62.52 62.56 62.87 63.71 65.83 63.43 62.53 61.88 61.09 60.91 60.68 60.41 60.61 59.98 59.78 59.80 58.84 61.38 62.98 63.64 64.28 63.26 62.61 61.48 59.80 58.19
43.17 40.62 45.26 45.04 44.26 46.00 45.01 42.99 43.12 44.42 40.80 49.68 53.35 56.66 58.89 58.41 59.40 60.75 60.73 60.92 60.90 61.54 62.04 61.69 62.25 62.72 62.74 63.45 62.76 61.83 60.96 60.41 60.23 59.70 60.16 59.78 59.44 58.47 57.82 57.17 57.10 57.31 57.39 57.15 58.30 58.08 57.24 57.68 56.41
41.41 44.75 44.61 46.24 46.11 45.38 44.43 44.32 41.73 42.32 43.40 50.37 57.40 58.65 58.47 58.05 57.19 59.55 60.71 60.98 61.13 61.20 61.69 61.81 61.98 62.54 61.84 62.39 62.29 62.11 61.41 60.72 60.32 59.86 60.97 58.55 57.95 57.67 57.35 56.69 56.69 56.41 56.71 56.01 55.73 56.81 57.16 56.37 56.68
42.91 42.52 43.50 44.31 44.93 44.11 44.55 42.25 42.82 42.51 42.42 53.84 57.05 58.00 57.87 58.26 57.09 58.21 60.75 61.87 62.12 61.88 62.28 62.21 61.62 61.66 61.68 61.10 61.74 61.92 61.52 61.46 61.48 61.42 60.91 59.39 57.31 56.73 58.03 57.37 57.09 56.79 56.23 56.51 55.63 55.71 56.07 55.75 56.11
44.86 43.50 42.27 43.28 42.74 42.94 42.92 40.98 42.85 42.87 44.67 54.23 56.28 56.15 57.13 57.64 57.95 57.29 58.68 60.27 61.82 62.83 63.03 63.60 63.08 62.14 61.82 60.98 61.28 61.60 61.66 62.18 61.69 61.43 61.14 59.95 59.07 57.90 57.84 57.15 57.49 57.09 56.39 56.15 55.99 55.59 55.06 54.98 54.92
45.14 39.27 40.21 40.25 41.80 41.64 42.72 39.08 39.72 42.66 46.72 52.83 54.18 55.15 56.52 57.15 57.60 58.26 59.19 59.61 62.21 63.17 63.78 63.44 63.66 63.41 62.36 62.03 61.86 61.85 62.06 62.24 61.49 61.59 61.60 60.69 59.68 58.80 58.20 57.28 56.83 57.13 56.51 55.77 55.36 54.43 53.92 53.36 54.03
41.31 38.05 34.54 38.68 41.53 40.35 40.23 36.01 41.55 41.93 45.20 48.68 49.83 51.06 54.50 55.66 57.61 58.37 58.70 59.32 61.14 63.02 63.05 63.86 64.52 63.24 62.87 62.52 62.70 62.47 62.28 62.05 62.57 63.27 63.33 62.44 60.79 59.34 57.67 57.13 56.77 57.04 56.82 55.46 54.36 53.67 53.00 52.16 52.08
34.81 32.07 33.30 35.76 40.97 39.18 38.50 36.57 41.03 41.50 42.28 42.03 42.20 44.61 49.10 52.81 52.73 55.41 56.89 58.46 59.93 62.44 63.22 63.25 63.27 62.79 62.67 62.62 63.12 63.80 64.08 63.80 63.91 63.84 63.27 63.00 62.48 60.56 58.12 56.94 56.77 56.48 55.63 54.80 54.35 53.27 52.03 52.92 51.87
32.10 32.82 32.56 32.43 38.01 37.16 36.14 37.32 38.55 39.98 40.22 40.59 39.79 40.35 42.70 46.28 49.24 52.45 54.65 55.91 58.95 61.41 63.28 63.29 63.46 62.92 62.14 62.26 62.80 64.41 64.15 63.87 64.13 63.73 63.59 63.66 63.34 62.31 60.45 57.93 56.85 57.39 56.98 56.61 56.11 55.34 54.90 54.15 53.82
37.23 35.34 34.88 33.99 37.58 36.57 36.31 36.11 38.33 39.56 38.98 38.75 38.95 39.46 41.30 43.73 45.45 46.74 49.64 53.90 56.14 57.36 60.60 62.28 62.55 62.48 62.05 61.79 61.18 62.85 62.74 63.42 63.45 63.72 63.79 63.64 63.64 63.14 61.84 60.44 58.58 58.29 57.37 57.14 56.67 55.93 54.90 54.38 54.31
36.71 34.48 32.06 34.41 36.60 35.51 34.65 36.42 37.36 38.12 38.53 39.39 40.07 39.22 42.01 41.55 42.37 42.77 43.74 43.95 46.81 48.37 54.80 59.00 62.06 62.36 62.43 62.60 61.96 61.04 63.17 63.42 63.70 64.11 63.76 63.63 63.22 63.31 62.85 62.59 61.01 59.28 57.62 56.27 56.05 54.80 54.73 54.12 53.78
33.42 33.38 32.12 33.98 34.97 34.21 32.88 32.71 35.12 39.22 38.05 38.86 39.80 39.35 40.40 41.22 41.87 42.08 42.73 43.76 44.04 43.73 44.70 48.17 60.00 62.15 62.72 62.38 62.67 62.54 62.68 62.83 62.64 62.80 62.83 63.18 63.17 62.90 62.90 62.92 62.35 61.07 59.55 56.77 55.77 56.17 55.09 54.02 53.95
32.70 37.27 36.48 34.55 31.93 28.29 32.04 25.97 30.40 36.16 37.22 37.94 39.39 38.90 40.47 40.25 41.61 42.45 44.18 44.85 44.79 46.23 47.23 46.35 47.41 60.61 61.93 61.89 62.65 61.54 60.87 60.27 61.58 62.17 62.78 62.63 62.52 62.25 61.76 61.68 61.23 60.42 59.62 58.42 57.41 56.63 56.09 55.02 53.27
35.85 38.51 37.10 34.62 30.61 29.74 27.94 26.46 29.69 32.06 34.08 36.40 38.36 38.16 39.32 40.81 41.82 43.03 43.87 45.63 45.70 48.84 48.00 44.10 44.48 49.25 60.77 61.94 62.78 61.85 60.75 60.25 60.08 60.87 60.68 60.34 56.62 57.27 58.06 59.31 59.30 58.88 58.76 57.47 56.73 56.05 55.18 54.86 53.81
38.95 36.42 34.45 31.78 29.71 24.75 27.80 27.94 27.46 30.13 34.63 37.85 36.54 38.57 39.04 40.52 41.79 42.71 44.34 45.92 46.26 47.11 47.41 42.97 47.67 51.15 58.29 61.26 60.70 61.27 59.75 58.74 58.27 58.07 57.53 55.39 51.15 50.41 50.64 50.87 51.25 51.49 52.54 51.73 51.27 50.70 50.79 51.56 52.53
36.56 33.83 25.17 23.29 22.56 22.97 24.51 24.38 31.14 32.86 35.52 36.53 38.13 38.67 39.60 40.86 41.74 42.59 43.51 43.80 44.59 46.12 47.55 48.39 49.39 50.45 53.47 56.55 56.95 57.99 57.49 57.68 56.39 54.48 52.51 48.84 47.46 46.28 45.23 44.99 44.74 44.99 45.05 45.21 46.23 45.66 45.53 45.11 45.29
32.43 33.70 24.44 17.69 18.67 22.18 26.06 24.38 31.70 35.12 35.87 37.66 38.35 39.36 39.50 40.09 41.56 42.25 42.78 42.69 43.06 45.15 46.28 46.92 47.55 47.26 48.32 50.37 49.24 50.72 50.50 48.77 48.14 47.47 45.52 44.07 42.27 40.97 41.33 41.57 41.54 41.60 41.54 41.91 42.23 41.73 41.69 40.36 39.96
33.87 30.68 33.60 25.90 17.08 22.00 25.07 27.49 33.74 34.83 36.34 36.65 37.60 39.23 38.97 39.01 40.29 41.71 42.02 42.14 42.05 42.64 43.30 43.73 43.28 42.83 43.65 44.77 44.82 44.34 44.73 43.87 42.69 41.49 41.25 40.06 39.38 39.81 39.15 38.99 38.65 38.98 38.93 39.11 38.97 38.60 36.94 36.81 37.11
35.40 36.72 30.06 27.10 17.97 17.20 23.47 23.44 27.48 30.94 34.42 36.36 36.20 38.09 37.89 39.10 39.56 40.27 40.28 40.76 40.78 41.08 40.84 40.95 40.98 40.56 40.42 41.40 42.08 41.46 40.64 40.49 39.70 39.48 38.08 37.52 37.30 37.34 37.07 36.88 36.72 36.62 36.49 37.07 36.84 36.07 35.32 34.81 35.22
32.44 30.76 30.45 31.08 27.31 22.08 17.57 24.84 31.65 34.66 36.71 36.49 37.06 37.85 39.04 39.18 39.62 39.84 39.38 39.62 39.52 39.30 39.34 39.04 39.49 39.40 39.37 39.76 39.60 39.07 38.24 37.77 37.67 36.95 36.46 36.34 35.77 35.63 35.17 35.43 35.11 34.90 34.53 35.17 34.53 33.93 33.64 33.39 33.43
33.52 33.14 32.42 29.64 25.33 25.06 25.01 26.83 34.24 35.00 36.15 37.39 38.06 39.15 39.01 40.00 39.76 39.09 38.76 38.23 38.30 38.35 38.37 38.13 38.14 38.25 38.29 38.20 37.67 37.07 36.67 36.04 35.36 34.55 34.71 34.81 34.09 34.01 33.65 33.94 33.80 33.65 33.33 33.61 33.01 32.23 32.47 32.03 31.83
MSLP
1015.35 1015.19 1015.35 1015.66 1017.17 1017.48 1017.27 1016.90 1016.34 1016.29 1016.29 1016.29 1016.25 1016.97 1018.36 1018.84 1019.22 1019.93 1019.54 1019.75 1019.99 1020.46 1020.67 1020.80 1020.93 1021.07 1021.21 1021.40 1021.49 1021.53 1021.57 1021.51 1021.69 1021.78 1021.82 1021.88 1022.01 1022.11 1022.18 1022.14 1022.08 1022.16 1022.17 1022.30 1022.30 1022.32 1022.30 1022.38 1022.44
1015.54 1015.26 1015.60 1016.39 1017.34 1017.85 1017.64 1016.85 1016.46 1016.05 1016.42 1016.51 1016.79 1017.77 1018.41 1019.27 1019.21 1019.70 1020.07 1020.00 1020.00 1020.42 1020.71 1020.92 1021.08 1021.21 1021.47 1021.63 1021.74 1021.83 1021.90 1021.86 1022.02 1022.15 1022.16 1022.23 1022.42 1022.55 1022.56 1022.50 1022.63 1022.58 1022.59 1022.66 1022.73 1022.80 1022.90 1022.95 1023.01
1015.56 1015.74 1016.34 1016.77 1017.55 1017.70 1017.25 1017.03 1016.42 1016.26 1016.34 1016.40 1017.30 1018.07 1018.67 1019.32 1019.42 1019.80 1019.83 1020.20 1020.51 1020.88 1020.96 1021.07 1021.22 1021.36 1021.61 1021.80 1021.99 1022.18 1022.27 1022.35 1022.45 1022.52 1022.56 1022.58 1022.76 1022.95 1023.01 1023.00 1023.04 1023.03 1023.00 1023.15 1023.21 1023.34 1023.44 1023.46 1023.42
1015.79 1016.11 1016.70 1016.91 1017.01 1016.61 1016.57 1016.55 1016.22 1016.28 1016.42 1016.57 1017.39 1018.78 1018.95 1018.80 1018.89 1019.48 1019.97 1020.16 1020.81 1021.21 1021.37 1021.46 1021.49 1021.47 1021.72 1022.00 1022.23 1022.37 1022.53 1022.65 1022.78 1022.90 1022.97 1023.03 1023.10 1023.32 1023.43 1023.49 1023.49 1023.53 1023.51 1023.61 1023.71 1023.79 1023.86 1023.87 1023.87
1016.15 1016.69 1017.12 1017.12 1016.63 1016.21 1016.13 1016.10 1016.02 1016.32 1016.61 1017.10 1017.42 1019.18 1019.19 1019.16 1019.06 1019.76 1020.20 1020.43 1020.99 1021.38 1021.44 1021.63 1021.76 1021.81 1022.03 1022.22 1022.47 1022.59 1022.88 1023.04 1023.21 1023.29 1023.34 1023.39 1023.47 1023.61 1023.71 1023.78 1023.71 1023.77 1023.88 1024.02 1024.11 1024.10 1024.15 1024.12 1024.25
1016.55 1016.92 1017.61 1017.31 1016.61 1016.17 1016.10 1015.95 1016.11 1016.34 1016.81 1017.48 1018.17 1019.12 1019.56 1019.39 1019.42 1020.15 1020.41 1020.82 1021.19 1021.45 1021.66 1021.54 1021.81 1021.94 1022.27 1022.51 1022.77 1022.98 1023.23 1023.40 1023.51 1023.61 1023.70 1023.77 1023.84 1023.82 1023.93 1024.04 1024.14 1024.12 1024.22 1024.39 1024.50 1024.55 1024.53 1024.51 1024.64
1016.52 1017.12 1017.55 1017.01 1016.88 1016.36 1015.84 1015.82 1015.95 1016.40 1016.85 1017.30 1017.75 1019.29 1019.76 1019.87 1019.80 1020.19 1020.69 1020.93 1021.56 1021.74 1021.79 1021.92 1022.07 1022.22 1022.42 1022.72 1023.00 1023.27 1023.55 1023.60 1023.68 1023.85 1024.01 1024.13 1024.23 1024.24 1024.27 1024.39 1024.45 1024.52 1024.65 1024.83 1024.95 1024.98 1024.94 1024.86 1024.91
1016.40 1016.87 1017.37 1016.84 1016.78 1016.09 1015.67 1015.82 1016.06 1016.02 1016.81 1017.02 1017.51 1018.89 1019.61 1019.37 1019.83 1020.33 1020.99 1021.40 1021.89 1022.19 1022.41 1022.57 1022.59 1022.76 1022.87 1023.08 1023.32 1023.58 1023.78 1023.90 1024.02 1024.12 1024.29 1024.48 1024.56 1024.62 1024.75 1024.74 1024.74 1024.80 1024.98 1025.11 1025.19 1025.24 1025.25 1025.20 1025.17
1016.15 1016.77 1017.11 1016.45 1016.47 1015.80 1015.62 1015.71 1016.11 1016.18 1016.67 1017.26 1017.57 1017.80 1017.82 1019.02 1019.82 1020.54 1021.29 1021.77 1022.26 1022.39 1022.51 1022.60 1022.80 1023.16 1023.34 1023.59 1023.76 1023.90 1024.04 1024.16 1024.28 1024.39 1024.48 1024.69 1024.91 1025.01 1025.10 1025.10 1025.09 1025.17 1025.31 1025.44 1025.49 1025.51 1025.53 1025.51 1025.44
1016.38 1016.69 1016.29 1015.49 1015.39 1015.33 1015.55 1015.63 1016.01 1016.47 1017.09 1017.65 1017.81 1017.78 1018.05 1019.20 1019.67 1020.42 1021.02 1021.54 1022.14 1022.44 1022.66 1022.78 1022.85 1022.99 1023.28 1023.50 1023.86 1024.00 1024.18 1024.35 1024.47 1024.61 1024.79 1024.96 1025.13 1025.26 1025.34 1025.42 1025.43 1025.50 1025.59 1025.66 1025.68 1025.71 1025.72 1025.72 1025.69
1016.70 1016.27 1015.66 1015.09 1014.89 1014.96 1015.33 1015.87 1016.03 1016.56 1017.29 1017.42 1017.84 1018.27 1018.67 1019.40 1019.91 1020.43 1020.98 1021.23 1021.38 1021.86 1022.41 1022.65 1023.00 1023.04 1023.10 1023.39 1023.79 1024.12 1024.36 1024.51 1024.69 1024.85 1025.07 1025.27 1025.47 1025.61 1025.74 1025.84 1025.89 1025.94 1025.92 1026.00 1025.96 1026.01 1026.03 1026.01 1025.99
1017.19 1015.90 1015.57 1014.82 1014.65 1015.16 1015.22 1015.73 1016.26 1016.38 1016.41 1016.60 1017.30 1017.62 1018.77 1019.28 1019.96 1020.29 1020.77 1021.23 1021.54 1021.81 1022.02 1022.45 1022.57 1022.94 1023.08 1023.45 1023.87 1024.06 1024.36 1024.62 1024.84 1024.95 1025.01 1025.34 1025.66 1025.81 1025.93 1026.04 1026.07 1026.11 1026.15 1026.19 1026.26 1026.27 1026.21 1026.15 1026.07
1017.28 1016.37 1015.72 1015.11 1014.99 1015.35 1015.29 1015.77 1016.16 1016.49 1016.53 1017.12 1017.65 1018.35 1018.79 1019.13 1019.62 1020.05 1020.35 1020.63 1021.11 1021.50 1021.65 1022.08 1022.40 1022.81 1023.21 1023.44 1023.68 1024.06 1024.32 1024.54 1024.67 1024.91 1025.03 1025.23 1025.57 1025.80 1025.88 1026.03 1026.11 1026.14 1026.19 1026.24 1026.31 1026.34 1026.34 1026.28 1026.12
1016.92 1016.37 1016.10 1015.47 1015.50 1015.65 1015.64 1016.04 1016.10 1016.77 1016.96 1017.59 1017.91 1018.56 1018.83 1018.91 1019.02 1019.71 1020.04 1020.40 1020.71 1020.91 1021.27 1021.61 1022.12 1022.43 1022.98 1023.43 1023.67 1023.87 1024.13 1024.27 1024.50 1024.75 1024.92 1025.13 1025.36 1025.64 1025.82 1025.98 1026.05 1026.11 1026.07 1026.07 1026.16 1026.24 1026.28 1026.30 1026.31
1017.11 1016.95 1016.33 1016.00 1015.86 1015.81 1015.90 1016.51 1016.50 1016.67 1017.27 1017.89 1018.28 1018.69 1018.86 1018.98 1018.98 1019.13 1019.27 1019.70 1020.07 1020.46 1020.68 1021.14 1021.53 1021.88 1022.36 1022.85 1023.26 1023.58 1023.76 1023.98 1024.32 1024.56 1024.76 1024.96 1025.20 1025.52 1025.72 1025.90 1026.02 1025.99 1026.04 1026.09 1026.21 1026.25 1026.34 1026.46 1026.40
1016.83 1017.20 1017.05 1016.22 1016.16 1016.07 1016.24 1016.66 1016.59 1017.04 1017.30 1018.19 1018.45 1018.90 1018.90 1018.96 1018.68 1018.80 1018.98 1019.20 1019.65 1020.00 1020.49 1020.73 1020.93 1021.52 1022.00 1022.55 1022.95 1023.41 1023.65 1023.85 1023.88 1024.07 1024.40 1024.64 1024.92 1025.10 1025.40 1025.69 1025.82 1025.81 1025.90 1026.12 1026.36 1026.44 1026.50 1026.54 1026.56
1016.87 1017.24 1017.21 1016.56 1016.35 1016.27 1016.61 1016.86 1016.53 1017.14 1017.62 1018.24 1018.46 1018.74 1018.68 1018.94 1018.84 1018.41 1018.53 1018.78 1019.18 1019.45 1019.93 1020.51 1020.94 1021.41 1021.73 1022.14 1022.54 1022.88 1023.16 1023.46 1023.62 1023.76 1024.15 1024.42 1024.62 1024.90 1025.28 1025.55 1025.64 1025.65 1025.89 1026.08 1026.20 1026.33 1026.56 1026.43 1026.40
1016.76 1017.35 1017.18 1016.77 1016.67 1016.87 1017.00 1017.02 1016.78 1017.06 1017.71 1018.02 1018.09 1018.42 1018.60 1018.66 1018.29 1018.13 1018.24 1018.35 1018.58 1018.97 1019.41 1019.93 1020.54 1021.10 1021.43 1021.87 1022.28 1022.54 1022.88 1023.16 1023.52 1023.79 1024.06 1024.30 1024.45 1024.64 1024.82 1025.03 1025.27 1025.42 1025.49 1025.61 1025.83 1026.16 1026.19 1026.17 1026.14
1016.61 1017.09 1017.14 1016.81 1016.55 1016.99 1017.20 1017.14 1016.87 1017.05 1017.57 1018.01 1018.01 1018.04 1018.24 1018.34 1017.95 1018.00 1018.14 1018.30 1018.64 1019.02 1019.30 1019.75 1020.19 1020.80 1021.39 1021.86 1022.39 1022.68 1023.00 1023.18 1023.40 1023.58 1023.79 1023.96 1024.22 1024.36 1024.62 1024.77 1024.89 1025.18 1025.40 1025.50 1025.58 1025.81 1025.95 1025.94 1025.94
1016.48 1016.97 1017.38 1017.40 1017.12 1017.40 1017.62 1017.50 1017.15 1017.24 1017.13 1017.33 1017.38 1017.63 1017.82 1018.22 1018.24 1018.26 1018.42 1018.46 1018.64 1019.00 1019.39 1019.73 1019.95 1020.26 1020.90 1021.35 1021.86 1022.34 1022.61 1022.95 1023.01 1023.19 1023.35 1023.64 1023.88 1024.11 1024.37 1024.34 1024.55 1024.71 1025.09 1025.34 1025.45 1025.75 1025.83 1025.82 1025.90
1016.64 1016.71 1017.38 1017.41 1017.61 1017.96 1018.06 1018.24 1017.64 1017.08 1016.97 1017.09 1017.37 1017.10 1017.60 1017.85 1018.17 1018.64 1018.62 1018.64 1018.95 1019.28 1019.57 1019.48 1019.69 1019.94 1020.27 1020.77 1021.32 1021.83 1022.18 1022.75 1023.06 1023.34 1023.35 1023.31 1023.49 1023.64 1023.88 1024.08 1024.18 1024.42 1024.57 1025.02 1025.23 1025.51 1025.72 1025.86 1025.92
1016.45 1016.29 1016.85 1017.74 1018.36 1018.43 1018.32 1018.32 1017.76 1017.12 1016.86 1017.15 1017.22 1017.37 1017.60 1018.01 1018.28 1018.55 1018.88 1018.88 1019.05 1019.36 1019.49 1019.63 1019.64 1019.66 1020.06 1020.50 1020.94 1021.26 1021.88 1022.44 1022.65 1022.93 1023.16 1023.12 1023.41 1023.75 1023.89 1024.08 1024.27 1024.49 1024.56 1024.87 1025.03 1025.32 1025.46 1025.84 1025.98
1015.87 1016.17 1016.93 1017.98 1018.65 1018.77 1019.17 1019.10 1017.38 1017.23 1017.14 1016.98 1016.80 1017.26 1017.57 1017.80 1018.12 1018.61 1019.10 1019.03 1019.09 1019.26 1019.70 1019.47 1019.58 1019.53 1019.73 1020.21 1020.57 1020.85 1021.41 1021.82 1022.58 1023.00 1023.40 1023.85 1024.33 1024.45 1024.45 1024.47 1024.65 1024.73 1024.85 1024.94 1025.12 1025.28 1025.53 1025.82 1026.07
1015.95 1016.70 1017.77 1018.58 1019.42 1019.79 1018.88 1018.87 1017.42 1017.12 1016.21 1015.92 1016.43 1017.08 1017.40 1018.13 1018.61 1019.12 1019.36 1019.45 1019.53 1019.57 1019.71 1019.69 1019.60 1019.46 1019.54 1019.96 1020.25 1020.71 1021.40 1022.09 1022.76 1023.38 1024.04 1024.74 1025.09 1025.16 1025.18 1025.29 1025.29 1025.40 1025.48 1025.80 1025.75 1025.64 1025.70 1026.04 1026.25
1015.51 1016.48 1018.57 1019.87 1020.34 1019.76 1019.32 1019.21 1016.81 1016.00 1015.49 1015.42 1015.62 1016.54 1017.41 1018.29 1018.78 1019.27 1019.61 1019.73 1019.76 1019.87 1020.05 1020.14 1020.03 1019.76 1019.60 1019.95 1020.33 1020.56 1021.34 1021.93 1022.78 1023.32 1024.08 1025.01 1025.87 1026.09 1025.93 1025.95 1026.11 1026.20 1026.28 1026.25 1026.30 1026.39 1026.56 1026.56 1026.72
1015.48 1015.80 1017.26 1018.93 1020.50 1020.27 1019.82 1018.42 1016.14 1015.15 1014.93 1015.04 1015.42 1016.05 1017.38 1018.46 1018.85 1019.31 1019.55 1019.82 1019.87 1020.04 1020.45 1020.34 1020.35 1020.28 1020.22 1020.32 1020.75 1020.91 1021.76 1022.65 1023.57 1024.08 1024.47 1025.17 1025.64 1026.33 1026.55 1026.83 1026.82 1026.86 1026.87 1027.03 1027.02 1027.16 1027.41 1027.47 1027.41
1015.53 1015.69 1016.31 1018.51 1020.98 1020.47 1018.88 1017.52 1015.80 1015.15 1014.98 1015.08 1015.83 1016.60 1017.34 1018.30 1018.92 1019.42 1019.91 1020.17 1020.38 1020.59 1020.90 1020.73 1020.60 1020.76 1020.83 1020.86 1021.29 1021.75 1022.41 1023.22 1024.18 1024.65 1025.10 1025.66 1026.22 1026.69 1026.95 1026.99 1027.17 1027.43 1027.40 1027.54 1027.66 1027.86 1028.01 1028.02 1028.01
1014.21 1014.91 1016.36 1017.69 1019.70 1020.00 1018.56 1017.71 1015.74 1015.29 1014.80 1014.87 1015.93 1016.58 1017.42 1018.35 1019.07 1019.65 1020.08 1020.47 1020.72 1020.82 1021.13 1021.29 1021.20 1021.30 1021.34 1021.42 1021.94 1022.56 1023.27 1024.02 1024.78 1025.22 1025.68 1026.42 1026.91 1027.12 1027.36 1027.73 1027.78 1027.83 1027.76 1027.94 1028.03 1028.20 1028.46 1028.37 1028.39
1014.77 1014.79 1015.49 1016.63 1017.82 1017.94 1018.02 1015.98 1013.65 1013.36 1013.44 1014.18 1015.16 1016.19 1017.11 1018.04 1018.81 1019.50 1019.94 1020.61 1020.95 1021.04 1021.23 1021.50 1021.75 1021.87 1022.06 1022.19 1022.69 1023.25 1024.09 1024.81 1025.48 1025.97 1026.44 1026.62 1026.98 1027.28 1027.43 1027.82 1028.08 1028.36 1028.28 1028.25 1028.38 1028.54 1028.71 1028.69 1028.68
1014.14 1013.91 1014.56 1015.72 1017.09 1017.39 1016.90 1014.44 1012.68 1012.93 1013.13 1013.87 1015.09 1015.93 1016.99 1017.66 1018.48 1019.28 1019.82 1020.49 1021.03 1021.23 1021.37 1021.64 1021.89 1022.18 1022.67 1022.99 1023.22 1023.82 1024.57 1025.34 1025.93 1026.38 1026.82 1027.08 1027.49 1027.79 1027.74 1027.99 1028.29 1028.55 1028.57 1028.60 1028.59 1028.65 1028.84 1028.79 1028.77
Wind_Speed
8 8 1 5 5 5 2 1 3 4 4 4 3 11 8 4 1 4 4 9 13 8 6 7 10 11 14 14 14 14 13 15 16 15 16 18 18 17 17 18 16 16 15 17 16 18 19 19 19
6 5 5 2 5 2 4 2 5 4 7 10 9 5 6 2 2 9 7 11 12 9 7 7 11 12 15 14 14 14 13 14 15 15 14 18 18 17 17 17 16 15 17 17 18 18 18 18 18
5 2 3 5 3 4 5 4 6 3 6 4 6 5 5 3 5 5 8 11 10 8 7 8 12 14 15 14 14 14 13 12 13 14 16 18 18 16 16 16 16 15 17 16 17 17 16 17 18
2 4 5 4 4 3 7 8 6 6 3 7 6 7 3 3 6 8 11 12 9 7 6 8 11 13 16 14 15 15 13 13 14 14 15 15 17 16 16 15 16 15 15 15 15 14 14 15 17
3 2 3 0 2 2 2 5 5 5 4 4 4 3 3 4 13 17 13 11 11 7 7 7 11 13 15 15 15 15 13 13 14 14 15 15 14 16 15 14 13 15 16 14 14 13 12 13 16
3 3 4 2 1 3 2 5 6 4 3 4 7 5 1 5 15 12 12 10 9 8 6 8 10 12 13 14 15 14 13 13 13 14 14 13 12 10 14 14 14 15 13 14 13 12 11 11 14
5 5 5 3 4 3 5 6 8 8 6 3 10 6 2 4 11 12 10 11 8 6 6 5 6 9 11 12 12 12 12 12 12 13 12 11 10 12 10 12 13 13 12 12 12 11 10 10 11
3 5 5 3 6 4 3 4 4 7 3 6 9 7 7 12 11 12 11 10 8 6 5 4 5 5 6 7 11 11 10 11 11 10 10 9 9 10 9 7 10 12 12 11 10 9 8 8 8
2 4 3 5 7 5 3 5 1 2 6 3 2 7 11 12 13 13 10 7 6 6 6 6 6 5 5 5 6 8 9 9 9 8 8 7 4 5 6 7 10 10 10 10 8 7 6 6 7
4 4 8 5 5 8 6 5 7 5 3 5 4 5 18 15 16 16 13 12 9 8 7 6 6 8 7 6 5 5 5 4 4 5 5 4 4 4 4 6 7 8 9 7 5 4 3 3 3
1 4 3 3 2 8 10 5 2 10 2 6 12 17 15 12 13 15 12 13 12 11 7 7 6 7 7 6 4 3 2 3 3 5 4 3 3 3 3 2 2 2 4 2 2 2 1 3 2
5 5 4 2 4 5 10 8 4 2 6 11 16 21 16 14 13 14 13 11 10 10 10 8 8 7 6 5 4 4 3 3 3 4 5 4 3 3 3 2 2 2 1 1 1 1 2 3 2
5 4 2 1 2 3 6 6 6 5 2 10 10 13 16 15 10 9 12 12 11 11 11 10 8 7 5 5 4 4 4 4 4 4 5 4 4 4 3 2 2 2 2 2 2 2 2 3 4
5 4 3 1 2 1 6 4 5 6 5 12 15 12 13 16 15 8 11 12 13 12 13 11 9 8 7 5 5 5 4 5 4 4 4 5 4 4 3 3 4 3 4 3 3 3 2 3 2
8 3 2 2 2 2 6 2 5 6 8 13 11 10 11 12 9 14 13 12 15 12 14 12 11 10 11 8 6 5 4 5 4 4 6 5 5 4 4 3 3 4 2 2 1 1 1 2 2
8 4 4 3 5 1 3 8 6 7 12 12 10 9 10 11 14 11 10 11 13 13 13 12 10 10 9 7 6 4 4 4 4 4 5 7 6 6 4 3 3 3 2 2 1 2 3 3 3
1 5 4 2 6 3 3 6 5 7 8 10 9 9 10 10 8 9 10 12 12 15 14 12 9 11 10 7 5 7 6 4 3 3 4 5 5 6 4 3 3 3 2 2 2 2 1 2 3
6 5 3 5 6 3 5 7 3 8 8 11 10 9 8 9 12 9 10 9 12 13 14 14 11 10 9 5 4 3 3 3 3 3 3 4 4 5 5 4 5 4 3 3 2 3 2 3 3
6 5 6 3 3 5 9 5 9 7 4 8 9 9 9 10 5 4 4 7 7 6 11 13 13 10 8 5 5 4 4 3 2 3 5 5 5 5 5 4 4 4 4 4 4 2 3 2 1
5 8 5 1 1 3 4 9 5 5 7 9 10 9 11 6 6 6 6 5 5 7 7 7 12 13 11 9 6 3 4 2 3 5 5 5 5 5 5 5 4 5 3 4 4 4 2 2 1
5 6 5 5 4 2 5 7 4 8 5 4 7 6 5 11 10 8 8 7 5 4 4 6 9 12 13 11 7 3 4 2 3 3 3 5 6 5 5 5 2 3 3 4 3 3 3 2 1
9 7 8 7 5 5 4 6 6 9 9 7 9 8 9 9 6 5 6 6 6 4 3 3 5 9 10 11 10 10 6 4 3 4 3 3 4 3 1 2 2 0 0 1 1 1 2 2 3
9 7 9 7 4 6 3 2 8 2 8 10 13 10 9 9 9 8 7 5 2 2 4 5 6 6 9 12 10 9 7 4 3 2 4 6 8 9 8 6 6 5 4 4 4 4 2 1 1
8 8 7 5 3 3 7 8 7 6 10 9 4 10 11 8 7 6 5 5 3 1 1 3 6 5 8 12 8 11 10 8 6 4 6 5 5 5 7 7 6 6 5 5 4 5 6 4 2
5 9 2 0 1 7 2 3 9 5 8 8 12 10 8 8 8 8 7 6 4 3 3 3 5 4 6 8 7 9 9 9 9 7 6 6 3 2 6 6 6 5 5 6 5 6 6 5 4
6 9 7 8 5 4 3 8 8 8 5 7 8 10 9 9 7 8 7 6 6 5 4 5 5 7 6 9 8 10 10 7 6 7 7 6 5 4 5 5 6 7 7 6 6 5 5 5 5
6 6 6 8 3 3 5 6 10 4 7 4 7 11 13 9 8 8 6 6 6 5 5 6 7 7 6 9 9 10 10 10 9 9 7 6 5 5 6 6 6 6 7 6 6 4 5 5 4
7 9 4 2 6 4 5 4 7 7 13 9 10 13 9 8 8 7 7 7 5 6 5 6 6 7 7 9 9 9 10 10 9 8 9 7 6 5 7 6 6 6 6 6 6 5 5 5 4
4 4 2 6 5 7 2 8 10 14 17 15 11 10 12 11 11 9 7 6 6 6 6 6 7 8 9 10 10 12 10 9 8 8 6 6 6 6 7 6 6 6 5 5 5 5 5 6 5
2 7 6 8 8 1 3 8 3 7 7 9 10 11 9 11 10 9 9 8 7 7 7 7 6 8 7 9 11 11 10 9 9 7 6 6 7 6 6 6 6 5 5 5 5 5 4 5 6
Wind_Direction
334 319 164 45 53 62 268 180 162 146 53 344 49 90 113 52 49 181 125 144 131 136 126 114 102 112 118 113 104 97 97 95 91 95 101 92 85 86 84 81 77 83 83 76 83 81 81 72 66
327 314 33 86 92 82 263 317 135 150 133 123 92 95 56 60 60 112 102 146 132 131 124 117 109 107 117 110 104 100 99 96 97 95 90 96 90 88 87 86 88 90 83 88 85 82 76 67 58
309 236 83 100 118 190 172 207 156 111 159 117 93 59 114 120 117 130 132 136 124 120 117 122 120 120 120 116 107 102 99 101 102 94 83 98 96 89 88 87 85 85 86 81 82 80 72 64 58
350 354 25 92 229 205 159 190 169 127 70 74 110 65 46 224 129 129 136 128 119 111 107 106 109 116 125 117 113 106 104 104 102 100 91 89 100 92 96 97 96 91 87 88 82 77 70 65 61
41 44 60 54 269 31 120 188 178 118 96 97 108 124 68 27 114 130 132 125 127 125 128 117 109 111 126 126 121 113 116 117 111 106 100 93 95 103 104 92 77 101 94 89 84 76 71 65 64
36 103 68 208 267 71 155 191 137 103 124 153 81 104 100 115 124 131 128 126 127 132 128 127 119 109 130 133 125 122 124 122 115 109 102 96 81 106 117 103 91 89 90 95 86 76 67 57 59
128 96 187 167 198 183 182 175 142 145 148 146 145 100 129 142 141 130 130 123 118 121 116 117 119 122 116 124 125 123 126 124 117 110 105 98 85 75 108 111 103 98 96 92 85 75 62 48 48
109 96 144 205 192 224 196 125 133 131 149 110 153 156 179 170 153 125 126 119 120 110 98 108 109 105 109 129 124 123 124 117 116 116 111 104 95 83 77 72 108 100 100 97 89 78 62 40 31
88 75 176 199 153 220 202 119 119 23 101 75 342 160 164 149 133 126 127 117 126 140 143 144 132 120 109 105 121 119 124 126 126 125 123 105 103 91 80 84 92 95 97 96 92 85 64 32 6
95 128 213 194 196 185 160 133 148 99 101 29 47 66 141 138 146 147 154 154 159 159 164 165 155 149 145 141 145 140 138 141 137 132 126 116 118 119 102 93 90 95 100 103 97 104 67 20 346
296 202 231 230 184 185 149 130 133 125 226 200 154 144 157 152 152 156 164 167 170 169 161 176 172 162 155 149 154 148 147 144 142 144 146 128 128 112 99 89 73 83 93 51 47 36 14 341 334
327 271 258 274 107 147 154 126 113 185 212 163 160 155 162 166 162 164 167 168 165 168 171 176 172 170 169 151 164 160 152 161 159 170 151 138 136 148 153 158 162 153 176 179 250 291 301 311 307
234 282 300 344 97 166 117 139 161 206 124 143 135 158 171 175 172 168 171 173 168 167 174 177 168 168 170 159 158 164 173 171 184 176 165 156 156 172 173 182 191 198 193 207 226 259 282 304 316
283 244 296 48 108 164 134 152 130 250 116 143 152 175 178 183 181 166 172 177 177 176 176 171 167 160 163 169 174 178 177 183 171 175 179 171 165 171 181 190 204 211 207 210 209 221 253 284 315
221 211 314 233 169 166 130 58 203 192 145 151 165 183 183 194 179 194 190 177 183 187 180 179 171 161 166 172 173 176 188 172 167 173 183 178 171 189 189 191 210 229 257 236 222 270 301 301 307
149 107 165 244 161 190 96 228 234 183 144 174 175 190 191 205 200 197 198 190 185 183 185 186 179 171 161 168 159 158 167 167 175 171 178 179 187 186 184 198 222 230 205 203 246 264 278 264 274
52 181 188 213 197 131 134 235 222 167 168 178 190 195 200 212 226 210 205 197 180 184 182 185 179 180 175 175 169 172 182 182 173 135 163 192 187 182 177 201 224 196 191 202 214 236 227 277 277
163 152 164 185 210 170 168 255 213 182 180 191 195 205 203 208 214 209 207 201 181 182 181 180 179 184 177 161 153 137 180 174 180 176 177 182 192 196 197 198 215 207 211 225 204 234 248 259 273
157 156 182 222 196 140 205 230 216 202 202 210 207 207 208 211 211 186 161 167 151 162 175 182 173 180 167 160 167 172 196 177 180 196 213 203 206 206 205 215 204 203 220 220 212 217 245 285 269
155 171 199 14 98 142 156 246 246 211 226 205 197 202 204 184 173 160 152 134 140 148 163 172 189 175 179 175 174 154 156 180 181 195 198 201 199 212 225 220 205 204 211 228 226 205 220 250 202
216 165 180 182 133 56 115 296 236 251 244 218 238 214 192 186 181 181 169 152 136 155 171 168 183 180 182 175 163 115 102 108 165 200 202 207 203 210 218 254 247 224 190 233 217 223 210 252 297
213 194 166 144 131 191 165 257 243 227 230 215 215 204 203 191 184 177 177 159 158 173 185 211 191 176 176 168 172 169 163 169 190 189 191 172 207 224 279 329 43 19 190 261 265 240 216 199 249
217 150 158 161 150 122 211 128 263 138 236 233 217 205 205 194 179 174 182 164 151 136 204 199 214 196 176 175 180 169 165 136 121 120 130 70 62 55 53 53 54 61 61 63 59 51 35 78 280
145 95 53 60 98 250 205 163 260 193 208 220 192 206 199 185 162 158 164 147 141 35 198 183 183 181 172 176 166 162 148 138 127 118 102 85 72 61 50 48 56 51 50 37 37 45 51 39 22
182 146 114 348 224 220 122 154 244 249 237 223 209 195 176 171 165 162 165 160 143 128 140 151 161 120 145 144 138 133 127 126 121 121 117 108 75 54 50 51 49 47 46 46 48 48 45 32 39
198 168 149 181 193 207 105 227 247 230 256 245 223 173 154 166 166 172 172 166 153 146 147 121 125 102 99 112 108 107 102 100 96 107 107 106 103 84 71 64 58 51 48 44 46 49 39 31 32
199 192 154 99 13 65 208 288 302 252 274 198 173 161 173 172 168 168 162 158 150 143 144 135 116 96 86 101 101 92 101 107 111 103 102 98 94 90 83 77 73 55 51 50 55 56 38 36 26
178 154 107 7 137 231 270 257 226 219 228 209 190 189 168 163 160 152 153 154 149 138 125 105 101 109 104 97 98 100 102 96 99 97 96 94 92 90 83 70 67 65 58 52 54 47 23 37 15
145 180 143 121 155 173 193 257 216 208 212 205 194 179 172 166 163 162 151 148 144 130 126 117 111 112 103 104 107 103 99 99 96 100 102 105 102 99 91 88 77 64 59 52 59 43 26 21 7
276 199 158 191 215 262 161 264 208 224 225 182 187 176 170 166 162 157 155 152 154 149 140 134 120 109 109 111 112 109 112 107 109 108 108 106 100 80 88 86 80 64 50 45 50 40 18 16 5